Davenport, IA

4:01 AM CDT on October 21, 2019 (GMT -0500)
Davenport Municipal

Weather History for KDVN - September, 2019

Change the Weather History Date:

Friday, September 20, 2019

  Actual Average Record
Temperature  
Mean Temperature 78 °F 62 °F  
Max Temperature 88 °F 74 °F 93 °F (2017)
Min Temperature 67 °F 50 °F 33 °F (2006)
Degree Days  
Heating Degree Days 0 5  
Month to date heating degree days 5 53  
Since 1 July heating degree days 7 67  
Cooling Degree Days 13 2  
Month to date cooling degree days 134 58  
Year to date cooling degree days 974 762  
Growing Degree Days 28 (Base 50)    
Moisture  
Dew Point 68 °F    
Average Humidity 74    
Maximum Humidity 97    
Minimum Humidity 50    
Precipitation  
Precipitation 0.36 in 0.12 in 3.40 in (2017)
Month to date precipitation 2.66 1.97  
Year to date precipitation 34.69 27.79  
Snow  
Snow 0.00 in - - ()
Month to date snowfall 0.0  
Since 1 July snowfall 0.0  
Since 1 September snowfall 0.0  
Snow Depth 0.00 in    
Sea Level Pressure  
Sea Level Pressure 30.07 in    
Wind  
Wind Speed 7 mph (SSE)    
Max Wind Speed 16 mph    
Max Gust Speed 23 mph    
Visibility 8 miles    
Events Rain , Thunderstorm    
T = Trace of Precipitation, MM = Missing Value Source: NWS Daily Summary

Daily Weather History Graph

Daily Weather History Graph

Search for Another Location

Airport or City:

Astronomy

Sep. 20, 2019 Rise Set
Actual Time 6:47 AM CDT 7:03 PM CDT
Civil Twilight 6:19 AM CDT 7:31 PM CDT
Nautical Twilight 5:47 AM CDT 8:03 PM CDT
Astronomical Twilight 5:13 AM CDT 8:36 PM CDT
Moon 10:48 PM CDT (9/20) 12:57 PM CDT (9/20)
Length of Visible Light 13h 11m
Length of Day
12h 15m
Waning Gibbous, 65% of the Moon is Illuminated
Sep 20
Waning Gibbous
Sep 21
Last Quarter
Sep 28
New
Oct 5
First Quarter
Oct 13
Full

Hourly Weather History & Observations

Time (CDT) Temp. Heat Index Dew Point Humidity Pressure Visibility Wind Dir Wind Speed Gust Speed Precip Events Conditions
12:52 AM 69.1 °F - 66.9 °F 93% 30.05 in 6.0 mi East 4.6 mph - N/A   Mostly Cloudy
2:52 AM 68.0 °F - 66.0 °F 93% 30.05 in 5.0 mi East 4.6 mph - N/A   Partly Cloudy
3:52 AM 69.1 °F - 66.0 °F 90% 30.05 in 4.0 mi ESE 4.6 mph - 0.02 in   Partly Cloudy
4:45 AM 70.0 °F - 68.0 °F 93% 30.09 in 5.0 mi ESE 3.5 mph - N/A Thunderstorm Overcast
4:52 AM 70.0 °F - 68.0 °F 93% 30.07 in 6.0 mi South 3.5 mph - N/A Thunderstorm Overcast
5:09 AM 72.0 °F - 68.0 °F 87% 30.10 in 1.8 mi SSW 8.1 mph - 0.12 in Rain , Thunderstorm Heavy Thunderstorms and Rain
5:14 AM 71.1 °F - 69.1 °F 93% 30.10 in 0.8 mi ESE 10.4 mph - 0.32 in Rain , Thunderstorm Heavy Thunderstorms and Rain
5:19 AM 71.1 °F - 69.1 °F 93% 30.10 in 1.2 mi SSE 8.1 mph - 0.34 in Rain , Thunderstorm Thunderstorms and Rain
5:23 AM 71.1 °F - 69.1 °F 93% 30.10 in 2.5 mi SSE 6.9 mph - 0.34 in Rain , Thunderstorm Light Rain
5:30 AM 71.1 °F - 68.0 °F 90% 30.10 in 6.0 mi SSE 6.9 mph - 0.34 in Thunderstorm Mostly Cloudy
5:52 AM 70.0 °F - 68.0 °F 93% 30.08 in 7.0 mi SE 6.9 mph - 0.34 in   Clear
6:52 AM 71.1 °F - 66.9 °F 87% 30.09 in 8.0 mi South 9.2 mph - N/A   Mostly Cloudy
7:52 AM 71.1 °F - 66.9 °F 87% 30.10 in 10.0 mi South 10.4 mph - N/A   Overcast
8:09 AM 71.1 °F - 66.9 °F 87% 30.13 in 9.0 mi SSE 6.9 mph - N/A Thunderstorm Thunderstorm
8:30 AM 71.1 °F - 66.9 °F 87% 30.13 in 10.0 mi South 5.8 mph - N/A   Mostly Cloudy
8:52 AM 71.1 °F - 66.9 °F 87% 30.11 in 10.0 mi SSE 8.1 mph - N/A   Scattered Clouds
9:52 AM 73.9 °F - 66.0 °F 76% 30.10 in 10.0 mi Calm Calm - 0.00 in   Clear
10:52 AM 75.9 °F - 68.0 °F 76% 30.11 in 10.0 mi NW 5.8 mph - N/A   Scattered Clouds
11:52 AM 82.0 °F 84.9 °F 68.0 °F 62% 30.10 in 10.0 mi NW 4.6 mph - N/A   Scattered Clouds
12:52 PM 84.9 °F 87.6 °F 66.9 °F 55% 30.08 in 10.0 mi SW 8.1 mph - N/A   Clear
1:52 PM 86.0 °F 90.1 °F 69.1 °F 57% 30.05 in 10.0 mi South 10.4 mph - N/A   Clear
2:52 PM 87.1 °F 92.0 °F 70.0 °F 57% 30.03 in 10.0 mi SSE 8.1 mph - N/A   Clear
3:52 PM 87.1 °F 89.9 °F 66.9 °F 51% 30.02 in 10.0 mi South 12.7 mph - N/A   Clear
4:52 PM 87.1 °F 89.9 °F 66.9 °F 51% 30.03 in 10.0 mi SE 6.9 mph - N/A   Clear
5:52 PM 84.9 °F 88.8 °F 69.1 °F 59% 30.03 in 10.0 mi ESE 6.9 mph - N/A   Clear
7:52 PM 77.0 °F - 68.0 °F 74% 30.04 in 10.0 mi ESE 6.9 mph - N/A   Clear
8:52 PM 75.9 °F - 68.0 °F 76% 30.05 in 10.0 mi SE 5.8 mph - N/A   Clear
9:18 PM 75.0 °F - 69.1 °F 82% 30.08 in 10.0 mi ESE 6.9 mph - N/A Thunderstorm Clear
9:52 PM 77.0 °F - 68.0 °F 74% 30.06 in 10.0 mi SE 10.4 mph - N/A   Mostly Cloudy
10:52 PM 77.0 °F - 68.0 °F 74% 30.04 in 10.0 mi SSE 10.4 mph - N/A   Clear
11:52 PM 77.0 °F - 68.0 °F 74% 30.02 in 10.0 mi SSE 9.2 mph - N/A   Clear